#timestamp,LO_Frequency,Hit,StdDev 
1508616015.0,286047011.5,P
1508616015.9,286047011.5,N
1508616035.8,286047011.2,N
1508616055.6,286047012.0,N
1508616075.4,286047012.8,N
1508616095.3,286047019.5,Y
1508616115.1,286047009.3,P
1508616135.8,286047011.3,P
1508616155.7,286047011.1,P
1508616175.5,286047011.3,Y
1508616195.3,286047003.1,P
1508616215.2,286047007.1,N
1508616235.9,286047004.6,N
1508616255.7,286047006.6,N
1508616275.6,286047010.2,Y
1508616295.4,286047003.6,P
1508616315.2,286047002.9,N
1508616335.1,286047004.1,N
1508616336.0,286047004.1,Y
1508616355.8,286047004.4,P
1508616375.7,286047000.0,N
1508616395.5,286047004.4,N
1508616415.3,286047002.1,N
1508616435.1,286046998.7,N
1508616455.9,286046998.7,N
1508616475.7,286047001.1,N
1508616495.5,286046998.3,N
1508616515.4,286047001.2,N
1508616535.2,286047000.9,N
1508616555.0,286046996.7,N
1508616555.9,286046996.7,N
1508616575.8,286046995.3,N
1508616595.6,286046997.9,N
1508616615.4,286046996.9,N
1508616635.3,286046993.7,N
1508616655.1,286046993.7,N
1508616675.8,286046992.2,N
1508616695.7,286046996.0,N
1508616715.5,286046999.6,N
1508616735.3,286046999.0,N
1508616755.2,286046995.3,N
1508616775.9,286046997.6,N
1508616795.7,286046992.8,N
1508616815.6,286046993.5,N
1508616835.4,286046992.2,N
1508616855.2,286046994.2,N
1508616875.1,286046994.3,N
1508616876.0,286046994.3,N
1508616895.8,286046997.7,N
1508616915.6,286046996.7,N
1508616935.5,286046998.6,N
1508616955.3,286047000.2,N
1508616975.1,286046998.9,N
1508616995.9,286046995.4,N
1508617015.7,286046994.7,N
1508617035.5,286046991.4,Y
1508617055.4,286046991.1,P
1508617075.2,286046989.7,P
1508617095.0,286046989.1,P
1508617095.9,286046989.1,Y
1508617115.8,286046992.3,P
1508617135.6,286046991.3,P
1508617155.4,286046989.6,P
1508617175.3,286046988.5,Y
1508617195.1,286046995.5,P
1508617215.8,286046996.7,N
1508617235.7,286046997.7,N
1508617255.5,286046995.5,N
1508617275.3,286046993.9,N
1508617295.2,286046993.7,Y
1508617315.0,286047000.9,P
1508617315.9,286047000.9,N
1508617335.8,286046999.3,N
1508617355.6,286046998.0,N
1508617375.4,286046996.1,N
1508617395.3,286046994.2,N
1508617415.1,286046997.9,N
1508617416.0,286046997.9,N
1508617435.8,286046999.1,N
1508617455.7,286046997.6,N
1508617475.5,286046997.7,N
1508617495.3,286046995.3,N
1508617515.2,286046996.3,N
1508617535.9,286046997.6,N
1508617555.7,286046995.5,N
1508617575.6,286046999.6,N
1508617595.4,286046997.2,N
1508617615.2,286046998.0,N
1508617635.0,286046997.1,N
1508617636.0,286046997.1,N
1508617655.8,286046997.1,N
1508617675.6,286046997.6,N
1508617695.4,286046996.7,N
1508617715.3,286046998.3,N
1508617735.1,286047000.3,N
1508617755.9,286047001.2,N
1508617775.7,286047001.9,N
1508617795.5,286046999.9,N
1508617815.3,286047000.0,N
1508617835.2,286046999.1,N
1508617855.0,286047003.6,N
1508617855.9,286047003.6,N
1508617875.8,286047008.4,Y
1508617895.6,286047008.1,P
1508617915.4,286047010.0,N
1508617935.3,286047015.1,N
1508617955.1,286047017.4,N
1508617956.0,286047017.4,N
1508617975.8,286047019.9,N
1508617995.7,286047019.0,N
1508618015.5,286047024.0,Y
1508618035.3,286047009.6,P
1508618055.2,286047010.8,P
1508618075.9,286047008.1,P
1508618095.7,286047006.3,Y
1508618115.6,286047000.4,P
1508618135.4,286047000.9,N
1508618155.2,286047002.4,N
1508618175.1,286047004.1,N
1508618176.0,286047004.1,N
1508618195.8,286047005.4,N
1508618215.6,286047007.6,N
1508618235.5,286047004.9,N
1508618255.3,286047006.2,N
1508618275.1,286047010.0,Y
1508618295.9,286047005.2,P
1508618315.7,286047007.0,P
1508618335.5,286047005.6,P
1508618355.4,286047003.2,Y
1508618375.2,286047000.7,P
1508618395.1,286046997.2,N
1508618396.0,286046997.2,N
1508618415.8,286046995.3,N
1508618435.6,286046996.1,N
1508618455.5,286046995.6,N
1508618475.3,286046994.5,N
1508618495.1,286046995.3,N
1508618515.9,286046992.8,N
1508618535.7,286046987.0,Y
1508618555.5,286046990.2,P
1508618575.4,286046991.6,N
1508618595.2,286046989.5,P
1508618615.0,286046989.5,Y
1508618615.9,286046989.5,P
1508618635.8,286047000.9,N
1508618655.6,286047003.9,N
1508618675.4,286047004.2,N
1508618695.3,286047002.1,N
1508618715.1,286047001.2,N
1508618716.0,286047001.2,N
1508618735.8,286046996.1,N
1508618755.7,286046993.6,N
1508618775.5,286046994.4,N
1508618795.3,286046993.9,N
1508618815.2,286046996.2,N
1508618835.9,286046998.5,N
1508618855.7,286046998.8,N
1508618875.6,286046995.7,N
1508618895.4,286046992.5,N
1508618915.2,286046989.1,N
1508618935.0,286046986.9,N
1508618936.0,286046986.9,N
1508618955.8,286046987.9,N
1508618975.6,286046985.4,N
1508618995.4,286046985.7,N
1508619015.3,286046988.1,N
1508619035.1,286046987.9,N
1508619055.8,286046988.2,N
1508619075.7,286046988.2,N
1508619095.5,286046986.9,N
1508619115.3,286046989.4,N
1508619135.2,286046987.0,N
1508619155.0,286046987.3,N
1508619155.9,286046987.3,N
1508619175.7,286046989.1,N
1508619195.6,286046988.7,N
1508619215.4,286046990.0,N
1508619235.2,286046993.1,N
1508619255.1,286046992.6,N
1508619256.0,286046992.6,N
1508619275.8,286046991.0,N
1508619295.6,286046993.2,N
1508619315.5,286046990.3,N
1508619335.3,286046991.8,N
1508619355.1,286046990.8,N
1508619375.9,286046991.3,N
1508619395.7,286046991.3,N
1508619415.5,286046992.5,Y
1508619435.4,286047001.4,P
1508619455.2,286046999.9,N
1508619475.0,286047000.8,N
1508619475.9,286047000.8,N
1508619495.8,286047002.8,N
1508619515.6,286046998.2,N
1508619535.4,286046999.2,N
1508619555.3,286046997.7,N
1508619575.1,286047001.0,N
1508619595.8,286046999.6,N
